Погода в Кырчанах

Россия / Кировская область     57°38′36″N   50°09′23″E
темп.,
°C
ветер,
м/с
пор.,
м/с
влажн.,
%
обл.,
%
осадки,
мм/ч
давл.,
гПа
погр.,
м
5 августа, чт
чт500:00+15сз369130 0.0 1012116
03:00+13ссз37950 0.0 1012140
06:00+16ссз498827 0.0 1013287
09:00+20ссз67630 0.0 1014771
12:00+22ссз56465 0.0 10141706
15:00+22ссз554118 0.0 10152066
18:00+20сз365619 0.0 1015179
21:00+15ссз336722 0.0 101637
6 августа, пт
пт600:00+13ссз33730 0.0 101734
03:00+11ссз33760 0.0 101828
06:00+13с23690 0.0 1018134
09:00+19с3351100 0.0 1018674
12:00+21с343954 0.0 10181762
15:00+22с343883 0.0 10181879
18:00+19с2354100 0.0 101849
21:00+15св1158100 0.0 101811
7 августа, сб
сб700:00+15ссв1154100 0.0 101810
03:00+15св0155100 0.0 101811
06:00+15ссз1160100 0.0 101912
09:00+15ссз2267100 0.1 102084
12:00+16сз1165100 0.0 102085
15:00+21зсз114688 0.0 1019851
18:00+20юз115856 0.0 101920
21:00+17всв2262100 0.0 101949
8 августа, вс
вс800:00+15в236594 0.0 102059
03:00+15вюв2362100 0.0 102070
06:00+15вюв3563100 0.0 1021159
09:00+18юв345555 0.0 1021424
12:00+21ююв335284 0.0 1020672
15:00+24юв335084 0.0 1020893
18:00+22юв3463100 0.0 1020102
21:00+17юв3575100 0.0 102072
9 августа, пн
пн900:00+15юв368098 0.0 102099
03:00+14юв387987 0.0 1020143
06:00+17юв41071100 0.0 1019251
09:00+20ю4658100 0.0 1019352
12:00+24ю575085 0.0 1018679
15:00+28ю46425 0.0 10171205
18:00+26зюз235826 0.0 101649
21:00+19с228814 1.4 101715